User: anonymous
Location: Unspecified
(0.0000°N, 0.0000°E)
Time: 22:06:54
(UTC+00:00)
Language:

SR - Orbit

View from above orbital plane
View from above orbital plane
View from above satellite
View from above satellite

Ground track
Ground track

The orbit data is extracted from the following two-line orbital elements,

1 00046U 60007B   14108.44132390  .00001582  00000-0  34381-3 0  6213
2 00046 066.6937 007.3157 0214395 006.9313 353.4674 14.47641899812868
Epoch (UTC): 18 April 2014 10:35:30
Eccentricity: 0.0214395
inclination: 66.6937°
perigee height: 581 km
apogee height: 886 km
right ascension of ascending node: 7.3157°
argument of perigee: 6.9313°
revolutions per day: 14.47641899
mean anomaly at epoch: 353.4674°
orbit number at epoch: 81286

The dashed part of the orbit path shows where the satellite is in the earth's shadow,  

DLR